Home   Weather   Harare   Past weeks

Flag for Zimbabwe Past Weather in Harare, Zimbabwe — Yesterday and Last 2 Weeks

Now
70 °F

Clear.


Feels Like: 70 °F
Forecast: 59 / 85 °F
Wind: 10 mph from East

Location: Harare Kutsaga Airport

Current Time: Sep 30, 2016 at 12:09:05 AM

Latest Report: Sep 29, 2016 at 11:00 PM


Visibility: 10 mi

Pressure: 30.27 "Hg (25.46 "Hg at 1490m altitude)

Humidity: 46%

Dew Point: 48 °F

Location of HarareLocation

Past Weather in Harare — Graph

°F

Harare Temperature Yesterday

Maximum temperature yesterday: 88 °F (at 3:00 PM)
Minimum temperature yesterday: 59 °F (at 3:00 AM)
Average temperature yesterday: 74 °F

High & Low Weather Summary for the Past Weeks

 TemperatureHumidityPressure
High90 °F (Sep 25, 2:00 PM)100% (Sep 19, 1:00 AM)30.36 "Hg (Sep 19, 1:00 AM)
Low50 °F (Sep 21, 6:00 AM)10% (Sep 25, 3:00 PM)30.09 "Hg (Sep 16, 3:00 PM)
Average71 °F42%30.22 "Hg
* Reported Sep 14 10:00 PM — Sep 29 10:00 PM, Harare, Weather by CustomWeather, © 2016

Note: Actual official high and low records may vary slightly from our data, if they occured in-between our weather recording intervals... More about our weather records

Advertising

Harare Weather History for the Previous 24 Hours

Scroll right to see more
 ConditionsComfort  
Time TempWeatherWind HumidityBarometerVisibility
10:00 PM
Thu, Sep 29
70 °FClear.10 mph46%30.27 "Hg10 mi
9:00 PM73 °FClear.9 mph38%30.27 "Hg10 mi
8:00 PM77 °FClear.12 mph32%30.24 "Hg10 mi
7:00 PM79 °FClear.7 mph28%30.24 "Hg10 mi
6:00 PM81 °FClear.9 mph24%30.21 "Hg10 mi
5:00 PM82 °FPassing clouds.13 mph23%30.18 "HgN/A
4:00 PM86 °FPassing clouds.8 mph19%30.15 "HgN/A
3:00 PM88 °FPassing clouds.9 mph19%30.15 "HgN/A
2:00 PM86 °FPassing clouds.10 mph22%30.18 "HgN/A
1:00 PM86 °FPassing clouds.13 mph22%30.21 "HgN/A
12:00 PM82 °FPassing clouds.13 mph28%30.24 "HgN/A
11:00 AM81 °FPassing clouds.13 mph30%30.27 "HgN/A
10:00 AM81 °FPassing clouds.13 mph30%30.30 "HgN/A
9:00 AM77 °FPassing clouds.13 mph34%30.30 "HgN/A
8:00 AM73 °FClear.10 mph36%30.27 "Hg5 mi
7:00 AM68 °FHaze.7 mph43%30.27 "Hg3 mi
6:00 AM59 °FSunny.8 mph55%30.24 "Hg10 mi
5:00 AM63 °FClear.9 mph49%30.21 "Hg10 mi
4:00 AM61 °FClear.9 mph52%30.18 "Hg10 mi
3:00 AM59 °FClear.7 mph55%30.18 "Hg10 mi
2:00 AM64 °FClear.8 mph43%30.18 "Hg10 mi
1:00 AM64 °FClear.7 mph43%30.21 "Hg10 mi
12:00 AM66 °FClear.8 mph43%30.21 "Hg10 mi
Weather by CustomWeather, © 2016

See weather overviewHow to use our weather pages